TimeAEST,TemperatureF,Dew PointF,Humidity,Sea Level PressureIn,VisibilityMPH,Wind Direction,Wind SpeedMPH,Gust SpeedMPH,PrecipitationIn,Events,Conditions,WindDirDegrees,DateUTC
12:00 AM,66,62,82,30.04,,South,6.9,,,,,170,2013-08-02 14:00:00
12:00 AM,66.2,62.6,88,30.04,6.2,South,6.9,-,N/A,,Partly Cloudy,170,2013-08-02 14:00:00
12:30 AM,66.2,60.8,83,30.01,6.2,SSE,8.1,-,N/A,,Unknown,160,2013-08-02 14:30:00
1:00 AM,69,60,67,30.02,,South,12.7,,,,,180,2013-08-02 15:00:00
1:00 AM,69.8,60.8,73,30.01,6.2,South,12.7,-,N/A,,Partly Cloudy,180,2013-08-02 15:00:00
1:30 AM,66.2,60.8,83,30.01,6.2,North,5.8,-,N/A,,Partly Cloudy,350,2013-08-02 15:30:00
2:00 AM,66.2,60.8,83,30.01,6.2,SE,9.2,-,N/A,,Partly Cloudy,140,2013-08-02 16:00:00
2:30 AM,64.4,60.8,88,29.98,-9999.0,South,2.3,-,N/A,,Clear,170,2013-08-02 16:30:00
3:00 AM,65,61,83,29.99,,South,5.8,,,,,170,2013-08-02 17:00:00
3:00 AM,66.2,60.8,83,29.98,6.2,South,5.8,-,N/A,,Partly Cloudy,170,2013-08-02 17:00:00
3:30 AM,66.2,60.8,83,29.98,6.2,NW,1.2,-,N/A,,Scattered Clouds,320,2013-08-02 17:30:00
4:00 AM,65,61,83,30.00,,South,2.3,,,,,190,2013-08-02 18:00:00
4:00 AM,64.4,60.8,88,29.98,6.2,South,2.3,-,N/A,,Scattered Clouds,190,2013-08-02 18:00:00
4:30 AM,66.2,60.8,83,29.98,6.2,SSE,8.1,-,N/A,,Mostly Cloudy,150,2013-08-02 18:30:00
5:00 AM,66.2,60.8,83,29.98,6.2,NW,1.2,-,N/A,,Mostly Cloudy,320,2013-08-02 19:00:00
5:30 AM,64.4,60.8,88,29.98,6.2,North,4.6,-,N/A,,Scattered Clouds,350,2013-08-02 19:30:00
6:00 AM,64,60,84,30.01,19,North,3.5,,,,Partly Cloudy,0,2013-08-02 20:00:00
6:00 AM,64.4,60.8,88,30.01,6.2,North,3.5,-,N/A,,Partly Cloudy,360,2013-08-02 20:00:00
6:30 AM,64.4,60.8,88,30.01,6.2,ESE,9.2,-,N/A,,Partly Cloudy,120,2013-08-02 20:30:00
7:00 AM,64,60,84,30.03,,NNW,3.5,,,,,330,2013-08-02 21:00:00
7:00 AM,64.4,60.8,88,30.01,6.2,NNW,3.5,-,N/A,,Partly Cloudy,330,2013-08-02 21:00:00
7:30 AM,66.2,60.8,83,30.04,6.2,Calm,Calm,-,N/A,,Partly Cloudy,0,2013-08-02 21:30:00
8:00 AM,68.0,60.8,78,30.04,6.2,South,3.5,-,N/A,,Partly Cloudy,180,2013-08-02 22:00:00
8:30 AM,71.6,62.6,73,30.04,6.2,North,2.3,-,N/A,,Partly Cloudy,350,2013-08-02 22:30:00
9:00 AM,74,62,57,30.06,19,South,8.1,,,,Partly Cloudy,170,2013-08-02 23:00:00
9:00 AM,73.4,62.6,69,30.04,6.2,South,8.1,-,N/A,,Partly Cloudy,170,2013-08-02 23:00:00
9:30 AM,75.2,60.8,61,30.06,6.2,SSE,8.1,-,N/A,,Partly Cloudy,150,2013-08-02 23:30:00
10:00 AM,76,62,52,30.08,,SSE,9.2,,,,,160,2013-08-03 00:00:00
10:00 AM,75.2,62.6,65,30.06,6.2,SSE,9.2,-,N/A,,Scattered Clouds,160,2013-08-03 00:00:00
10:30 AM,75.2,62.6,65,30.06,6.2,SSE,11.5,-,N/A,,Scattered Clouds,150,2013-08-03 00:30:00
11:00 AM,75.2,62.6,65,30.04,6.2,SSE,12.7,-,N/A,,Scattered Clouds,150,2013-08-03 01:00:00
11:30 AM,77.0,62.6,61,30.04,6.2,SSE,13.8,27.6,N/A,,Scattered Clouds,150,2013-08-03 01:30:00
12:00 PM,77,64,55,30.04,9,South,13.8,,,Rain,Light Rain Showers,170,2013-08-03 02:00:00
12:00 PM,77.0,64.4,65,30.04,6.2,South,13.8,-,N/A,Rain,Light Rain Showers,170,2013-08-03 02:00:00
12:30 PM,77.0,64.4,65,30.01,6.2,South,10.4,-,N/A,,Scattered Clouds,170,2013-08-03 02:30:00
1:00 PM,78,62,48,30.03,,SE,17.3,,,,,140,2013-08-03 03:00:00
1:00 PM,78.8,62.6,57,30.01,6.2,SE,17.3,-,N/A,,Mostly Cloudy,140,2013-08-03 03:00:00
1:30 PM,75.2,62.6,65,30.01,6.2,SE,20.7,-,N/A,,Mostly Cloudy,130,2013-08-03 03:30:00
2:00 PM,73.4,62.6,69,30.01,6.2,SE,15.0,-,N/A,,Mostly Cloudy,140,2013-08-03 04:00:00
2:30 PM,69.8,64.4,83,30.01,5.0,South,12.7,-,N/A,Rain,Light Rain Showers,180,2013-08-03 04:30:00
3:00 PM,72,64,68,30.00,9,South,10.4,,,Rain,Light Rain Showers,190,2013-08-03 05:00:00
3:00 PM,71.6,64.4,78,29.98,6.2,South,10.4,-,N/A,Rain,Light Rain Showers,190,2013-08-03 05:00:00
3:30 PM,73.4,64.4,73,29.98,6.2,South,9.2,-,N/A,Rain,Light Rain Showers,190,2013-08-03 05:30:00
4:00 PM,70,64,75,30.00,,South,8.1,,,,,180,2013-08-03 06:00:00
4:00 PM,69.8,64.4,83,29.98,6.2,South,8.1,-,N/A,,Mostly Cloudy,180,2013-08-03 06:00:00
4:30 PM,71.6,62.6,73,30.01,6.2,South,11.5,-,N/A,,Mostly Cloudy,170,2013-08-03 06:30:00
5:00 PM,71.6,62.6,73,30.01,6.2,South,8.1,-,N/A,,Mostly Cloudy,180,2013-08-03 07:00:00
5:30 PM,71.6,60.8,69,30.01,6.2,SSE,11.5,-,N/A,,Mostly Cloudy,160,2013-08-03 07:30:00
6:00 PM,70,61,65,30.01,,South,8.1,,,,Overcast,190,2013-08-03 08:00:00
6:00 PM,69.8,60.8,73,30.01,6.2,South,8.1,-,N/A,,Scattered Clouds,190,2013-08-03 08:00:00
6:30 PM,69.8,60.8,73,30.01,6.2,South,6.9,-,N/A,,Scattered Clouds,190,2013-08-03 08:30:00
7:00 PM,70,60,63,30.03,,South,8.1,,,,,190,2013-08-03 09:00:00
7:00 PM,69.8,60.8,73,30.01,6.2,South,8.1,-,N/A,,Scattered Clouds,190,2013-08-03 09:00:00
7:30 PM,69.8,60.8,73,30.04,6.2,South,5.8,-,N/A,,Partly Cloudy,190,2013-08-03 09:30:00
8:00 PM,68.0,60.8,78,30.04,6.2,South,5.8,-,N/A,,Partly Cloudy,170,2013-08-03 10:00:00
8:30 PM,66.2,62.6,88,30.04,6.2,SE,6.9,-,N/A,,Partly Cloudy,140,2013-08-03 10:30:00
9:00 PM,67,62,80,30.05,,SE,10.4,,,,,140,2013-08-03 11:00:00
9:00 PM,66.2,62.6,88,30.04,-9999.0,SE,10.4,-,N/A,,Clear,140,2013-08-03 11:00:00
9:30 PM,66.2,62.6,88,30.04,-9999.0,SSE,9.2,-,N/A,,Clear,150,2013-08-03 11:30:00
10:00 PM,66,62,82,30.06,,SSE,8.1,,,,,160,2013-08-03 12:00:00
10:00 PM,66.2,62.6,88,30.04,-9999.0,SSE,8.1,-,N/A,,Clear,160,2013-08-03 12:00:00
10:30 PM,66.2,62.6,88,30.04,-9999.0,SSE,10.4,-,N/A,,Clear,150,2013-08-03 12:30:00
11:00 PM,64.4,60.8,88,30.04,-9999.0,SSE,9.2,-,N/A,,Clear,160,2013-08-03 13:00:00
11:30 PM,64.4,60.8,88,30.04,-9999.0,SSE,11.5,-,N/A,,Clear,160,2013-08-03 13:30:00